Location: Arrington
(35.8681°N, 86.7092°W)
Time: 11:03:10
(UTC+00:00)

STARLINK 1031 - Pass Details

Date: 23 November 2019
Orbit: 348 x 351 km, 53.0° (Epoch: 12 December)

Event Time Altitude Azimuth Distance (km) Brightness Sun altitude
Exits shadow 11:29:55 15° 243° (WSW) 1,042 4.6 -12.4°
Maximum altitude 11:32:07 54° 318° (NW) 432 2.8 -12.0°
Drops below altitude 10° 11:34:59 10° 38° (NE) 1,313 5.8 -11.4°
Sets 11:37:02 0° 43° (NE) 2,159 7.0 -11.0°
